Location: Kuppenheim
(48.8299°N, 8.2568°E)
Time: 10:26:08
(UTC+00:00)

FALCON 9 DEB - Pass Details

Date: 20 June 2021
Orbit: 358 x 373 km, 53.0° (Epoch: 03 August)

Event Time Altitude Azimuth Distance (km) Brightness Sun altitude
Rises 00:52:37 0° 292° (WNW) 2,257 6.8 -15.3°
Reaches altitude 10° 00:54:43 10° 298° (WNW) 1,400 5.8 -15.2°
Maximum altitude 00:57:47 50° 16° (NNE) 494 3.8 -15.0°
Drops below altitude 10° 01:00:48 10° 93° (E) 1,388 5.9 -14.9°
Sets 01:02:53 0° 99° (E) 2,234 6.9 -14.7°
